User: anonymous   Login
Location: Unspecified
(0.0000°N, 0.0000°E)
Time: 20:44:32
(UTC+01:00)
Language:

GPS 2-12 Rocket1 - Orbit

View from above orbital plane
View from above orbital plane
View from above satellite
View from above satellite

Ground track
Ground track

The orbit data is extracted from the following two-line orbital elements,

1 21891U 92009B   17055.00622833  .00000739  00000-0  39652-4 0  9991
2 21891  19.9966 294.9114 0047399 123.1526 237.3451 14.82821492349445
Epoch (UTC): 24 February 2017 00:08:58
Eccentricity: 0.0047399
inclination: 19.9966°
perigee height: 587 km
apogee height: 653 km
right ascension of ascending node: 294.9114°
argument of perigee: 123.1526°
revolutions per day: 14.82821492
mean anomaly at epoch: 237.3451°
orbit number at epoch: 34944

The dashed part of the orbit path shows where the satellite is in the earth's shadow,  

DLR